Rockford, IL

5:04 PM CDT on September 30, 2016 (GMT -0500)
Greater Rockford

Weather History for KRFD - February, 2013

Change the Weather History Date:

Thursday, February 14, 2013

  Actual Average Record
Temperature  
Mean Temperature 35 °F 26 °F  
Max Temperature 39 °F 34 °F 59 °F (1918)
Min Temperature 31 °F 17 °F -8 °F (1916)
Degree Days  
Heating Degree Days 30 40  
Month to date heating degree days 582 577  
Since 1 July heating degree days 4167 4486  
Cooling Degree Days 0 0  
Month to date cooling degree days 0 0  
Year to date cooling degree days 0 0  
Moisture  
Dew Point 28 °F    
Average Humidity 71    
Maximum Humidity 82    
Minimum Humidity 59    
Precipitation  
Precipitation T in 0.05 in 0.90 in (1906)
Month to date precipitation 1.70 0.62  
Year to date precipitation 4.79 1.99  
Snow  
Snow 0.00 in 0.30 in 6.00 in (1990)
Month to date snowfall 10.9 4.2  
Since 1 July snowfall 15.7 27.5  
Snow Depth 0.00 in    
Sea Level Pressure  
Sea Level Pressure 29.81 in    
Wind  
Wind Speed 12 mph (West)    
Max Wind Speed 26 mph    
Max Gust Speed 32 mph    
Visibility 10 miles    
Events Rain    
T = Trace of Precipitation, MM = Missing Value Source: NWS Daily Summary

Daily Weather History Graph

Daily Weather History Graph

Search for Another Location

Airport or City:

Trip Planner

Search our weather history database for the weather conditions in past years. The results will help you decide how hot, cold, wet, or windy it might be!

Date:

Astronomy

Feb. 14, 2013 Rise Set
Actual Time 6:53 AM CST 5:28 PM CST
Civil Twilight 6:24 AM CST 5:56 PM CST
Nautical Twilight 5:52 AM CST 6:29 PM CST
Astronomical Twilight 5:19 AM CST 7:02 PM CST
Moon 8:49 AM CST (2/14) 10:37 PM CST (2/14)
Length of Visible Light 11h 32m
Length of Day
10h 34m
Waxing Crescent, 22% of the Moon is Illuminated
Feb 14
Waxing Crescent
Feb 17
First Quarter
Feb 25
Full
Mar 4
Last Quarter
Mar 11
New

Hourly Weather History & Observations

Time (CST) Temp. Windchill Dew Point Humidity Pressure Visibility Wind Dir Wind Speed Gust Speed Precip Events Conditions
12:54 AM 35.1 °F 27.9 °F 30.9 °F 85% 29.71 in 10.0 mi South 9.2 mph - N/A   Overcast
1:54 AM 36.0 °F 29.0 °F 30.9 °F 82% 29.68 in 10.0 mi South 9.2 mph - 0.00 in Rain Light Rain
2:54 AM 37.0 °F 28.5 °F 30.9 °F 79% 29.66 in 10.0 mi South 13.8 mph - 0.00 in   Overcast
3:54 AM 36.0 °F 29.0 °F 30.0 °F 79% 29.65 in 10.0 mi SSW 9.2 mph - N/A   Partly Cloudy
4:54 AM 35.1 °F 27.4 °F 30.0 °F 82% 29.64 in 10.0 mi SSW 10.4 mph - N/A   Clear
5:54 AM 36.0 °F 29.0 °F 30.0 °F 79% 29.65 in 10.0 mi WSW 9.2 mph - N/A   Clear
6:54 AM 36.0 °F 29.0 °F 30.9 °F 82% 29.66 in 10.0 mi WSW 9.2 mph - N/A   Overcast
7:54 AM 36.0 °F 28.5 °F 30.9 °F 82% 29.68 in 10.0 mi WSW 10.4 mph 18.4 mph N/A   Overcast
8:54 AM 37.0 °F 28.9 °F 30.0 °F 76% 29.70 in 10.0 mi West 12.7 mph - N/A   Overcast
9:54 AM 37.0 °F 27.4 °F 30.0 °F 76% 29.71 in 10.0 mi West 17.3 mph 25.3 mph N/A   Overcast
10:54 AM 37.0 °F 27.7 °F 30.9 °F 79% 29.73 in 10.0 mi West 16.1 mph 24.2 mph N/A   Overcast
11:54 AM 37.9 °F 27.3 °F 30.9 °F 76% 29.76 in 10.0 mi WNW 21.9 mph 27.6 mph N/A   Overcast
12:21 PM 37.4 °F 28.2 °F 30.2 °F 75% 29.76 in 10.0 mi WNW 16.1 mph 26.5 mph N/A   Overcast
12:32 PM 37.4 °F 27.8 °F 30.2 °F 75% 29.77 in 10.0 mi WNW 17.3 mph 25.3 mph N/A   Overcast
12:54 PM 37.9 °F 28.2 °F 28.9 °F 70% 29.79 in 10.0 mi WNW 18.4 mph 26.5 mph N/A   Mostly Cloudy
1:26 PM 37.4 °F 27.5 °F 28.4 °F 70% 29.78 in 10.0 mi WNW 18.4 mph 27.6 mph N/A   Overcast
1:54 PM 39.0 °F 28.8 °F 28.0 °F 65% 29.81 in 10.0 mi WNW 21.9 mph 25.3 mph N/A   Mostly Cloudy
2:01 PM 37.4 °F 26.9 °F 26.6 °F 65% 29.80 in 10.0 mi WNW 20.7 mph 29.9 mph N/A   Mostly Cloudy
2:54 PM 37.0 °F 26.4 °F 25.0 °F 62% 29.86 in 10.0 mi WNW 20.7 mph 29.9 mph N/A   Overcast
3:54 PM 36.0 °F 27.1 °F 23.0 °F 59% 29.89 in 10.0 mi NW 13.8 mph - N/A   Overcast
4:54 PM 35.1 °F 27.4 °F 24.1 °F 64% 29.93 in 10.0 mi WNW 10.4 mph - N/A   Mostly Cloudy
5:54 PM 35.1 °F 27.4 °F 25.0 °F 67% 29.96 in 10.0 mi WNW 10.4 mph - N/A   Mostly Cloudy
6:54 PM 34.0 °F 27.2 °F 24.1 °F 67% 29.97 in 10.0 mi NW 8.1 mph - N/A   Overcast
7:54 PM 30.9 °F 27.5 °F 24.1 °F 76% 29.98 in 10.0 mi WNW 3.5 mph - N/A   Mostly Cloudy
8:54 PM 32.0 °F 27.5 °F 25.0 °F 75% 29.99 in 10.0 mi WNW 4.6 mph - N/A   Overcast
9:54 PM 30.9 °F 24.3 °F 25.0 °F 79% 30.01 in 10.0 mi NNW 6.9 mph - N/A   Overcast
10:54 PM 32.0 °F 27.5 °F 25.0 °F 75% 30.01 in 10.0 mi NNW 4.6 mph - N/A   Overcast
11:54 PM 32.0 °F 23.6 °F 25.0 °F 75% 30.02 in 10.0 mi NW 10.4 mph - N/A   Overcast